Hourly Data Report for May 26, 2003

TORONTO CITY
ONTARIO

43°40'00.000" N
79°24'00.000" W
112.50 m
6158355
71508
XTO

Download Data

Hourly Data (May 2003)
Hourly Data Report for May 26, 2003
TIME
LST
Temp Definition
°C
Dew Point Definition
°C
Rel Hum Definition
%
Precip. Amount Definition
mm

Wind Dir Definition
10's deg

Wind Spd Definition
km/h
Visibility Definition
km
Stn Press Definition
kPa
Hmdx Definition


Wind Chill Definition


Weather Definition


00:00 10.5 7.7 83   LegendMM LegendMM LegendMM 100.18     LegendNANA
01:00 10.9 7.6 80   LegendMM LegendMM LegendMM 100.15     LegendNANA
02:00 11.2 8.3 82   LegendMM LegendMM LegendMM 100.12     LegendNANA
03:00 10.5 7.9 84   LegendMM LegendMM LegendMM 100.10     LegendNANA
04:00 11.4 7.9 79   LegendMM LegendMM LegendMM 100.09     LegendNANA
05:00 10.8 7.9 82   LegendMM LegendMM LegendMM 100.14     LegendNANA
06:00 11.0 8.4 84   LegendMM LegendMM LegendMM 100.22     LegendNANA
07:00 13.0 9.3 78   LegendMM LegendMM LegendMM 100.24     LegendNANA
08:00 15.4 9.8 69   LegendMM LegendMM LegendMM 100.25     LegendNANA
09:00 16.4 9.4 63   LegendMM LegendMM LegendMM 100.23     LegendNANA
10:00 17.0 9.9 63   LegendMM LegendMM LegendMM 100.21     LegendNANA
11:00 18.1 10.7 62   LegendMM LegendMM LegendMM 100.19     LegendNANA
12:00 17.8 9.4 58   LegendMM LegendMM LegendMM 100.18     LegendNANA
13:00 18.5 9.8 57   LegendMM LegendMM LegendMM 100.17     LegendNANA
14:00 16.3 8.3 59   LegendMM LegendMM LegendMM 100.16     LegendNANA
15:00 17.3 9.0 58   LegendMM LegendMM LegendMM 100.15     LegendNANA
16:00 14.3 9.7 74   LegendMM LegendMM LegendMM 100.15     LegendNANA
17:00 16.1 9.8 66   LegendMM LegendMM LegendMM 100.12     LegendNANA
18:00 15.9 9.3 65   LegendMM LegendMM LegendMM 100.14     LegendNANA
19:00 15.3 9.0 66   LegendMM LegendMM LegendMM 100.17     LegendNANA
20:00 14.7 9.3 70   LegendMM LegendMM LegendMM 100.19     LegendNANA
21:00 14.3 10.1 76   LegendMM LegendMM LegendMM 100.25     LegendNANA
22:00 13.4 10.2 81   LegendMM LegendMM LegendMM 100.25     LegendNANA
23:00 12.6 9.1 79   LegendMM LegendMM LegendMM 100.29     LegendNANA

Notes on Data Quality.

Legend

  • E = Estimated
  • M = Missing
  • NA = Not Available*
  • [empty] = Indicates an unobserved value
Date modified: